Find Starlink 31850

NORAD ID: 59903 Int'l Des: 2024-100 Owner: SPXS Country: US Constellation: starlink operational
LEOCIRCULAR

当前视图

正在加载3D地球...

About Starlink 31850

Starlink 31850 (NORAD 59903) is a starlink constellation satellite (v2 mini) launched May 28, 2024 by SPXS of US. It operates in LEO, CIRCULAR orbit with a mass of 730.00 kg.

即将过境

Passes for default location (London). Set your location on the main map for personalized predictions.

高度历史

Loading altitude history...

两行轨道根数

1 59903U 24100U 26237.08327719 .00000131 00000-0 14279-4 0 9992
2 59903 42.9994 254.1147 0000749 304.0938 55.9843 15.27579610126855
Epoch: Aug 25, 2026 • Age: 13 hours

当前状态

高度 482.9 km
远地点 / 近地点 N/A
速度 7.63 km/s
星下点 -3.18°S, 55.91°E
发射日期 May 28, 2024
运行时间 2.2 years
类型 internet

技术详情

分类 Payload
质量 730.00 kg
干质量 700.00 kg
总质量 730.00 kg
长度 0.30 m
直径 4.10 m
跨度 29.00 m
形状 Box + pan
制造商 SPXS
平台类型 Starlink V2M
阶段状态 In Orbit
所有者/国家 SPXS/US

Most Searched